Location: Newark
(41.6500°N, 71.4833°W)
Time: 02:12:13
(UTC+00:00)

A-11 Canister half - Pass Details

Date: 24 January 2020
Orbit: 1517 x 1683 km, 47.2° (Epoch: 19 February)

Event Time Altitude Azimuth Distance (km) Brightness Sun altitude
Rises 07:05:04 0° 271° (W) 4,699 - -55.0°
Reaches altitude 10° 07:08:12 10° 275° (W) 3,702 - -54.5°
Maximum altitude 07:17:25 63° 356° (N) 1,670 - -53.0°
Exits shadow 07:22:36 29° 67° (ENE) 2,502 10.3 -52.1°
Drops below altitude 10° 07:26:37 10° 77° (ENE) 3,689 11.4 -51.4°
Sets 07:29:44 0° 80° (E) 4,681 12.1 -50.9°
